GW5324 Weather Reports


Display with metric or nautical units.
time (UTC)temp
F
wind
direction
speed
MPH
gust
MPH
rain 1hr
in
rain 24hr
in
rain mn
in
humidity
%
barometer
mb
20260503000033 0 0.0 0.0 0.00 0.03 0.03 1011.5
20260502234531 0 0.0 0.0 0.00 0.03 0.03 1011.5
20260502233030 0 0.0 0.0 0.00 0.03 0.03 1011.8
20260502231525 70 286 5.0 8.0 0.00 0.03 0.03 57 1011.8
20260502230009 0 333 4.0 0.0 0.00 0.03 0.03 1012.1
20260502224530 0 0.0 0.0 0.00 0.03 0.03 1012.4
20260502223033 0 0.0 0.0 0.00 0.03 0.03 1012.7
20260502221526 0 0.0 0.0 0.00 0.03 0.03 1012.8
20260502220026 0 0.0 0.0 0.00 0.03 0.03 1013.2
20260502214533 0 0.0 0.0 0.00 0.03 0.03 1013.4
20260502213029 65 1.0 6.0 0.00 0.03 0.03 62 1013.7
20260502211541 0 0.0 0.0 0.00 0.03 0.03 1013.9
20260502210030 0 0.0 0.0 0.00 0.03 0.03 1014.2
20260502204531 64 2.0 4.0 0.00 0.03 0.03 65 1014.6
20260502203030 63 310 4.0 8.0 0.00 0.03 0.03 65 1014.7
20260502201529 0 0.0 0.0 0.00 0.03 0.03 1014.8
20260502200031 0 0.0 0.0 0.00 0.03 0.03 1015.0
20260502194533 0 0.0 0.0 0.00 0.03 0.03 1015.2
20260502193031 61 313 3.0 10.0 0.00 0.03 0.03 68 1015.4
20260502191529 0 0.0 0.0 0.00 0.03 0.03 1015.6
20260502190031 0 0.0 0.0 0.00 0.03 0.03 1015.7
20260502184537 0 0.0 0.0 0.00 0.03 0.03 1015.6
20260502183030 0 0.0 0.0 0.00 0.03 0.03 1015.7
20260502181528 0 0.0 0.0 0.00 0.03 0.03 1016.0
20260502163030 0 0.0 0.0 0.00 0.03 0.03 1016.4
20260502161529 52 332 1.0 5.0 0.00 0.03 0.03 83 1016.6
20260502151530 52 0.0 0.0 0.00 0.03 0.03 1016.7
20260502123018 51 287 2.0 4.0 0.00 0.03 0.03 85 1016.4
20260502121531 51 0.0 0.0 0.00 0.03 0.03 85 1016.4
20260502114510 51 281 5.0 9.0 0.00 0.03 0.03 85 1016.4
20260502113019 51 318 1.0 4.0 0.00 0.03 0.03 86 1016.0
20260502111530 0 0.0 0.0 0.00 0.03 0.03 1016.1
20260502110025 51 265 3.0 6.0 0.00 0.03 0.03 86 1016.4
20260502104538 51 270 3.0 8.0 0.00 0.03 0.03 85 1016.3
20260502103033 0 0.0 0.0 0.00 0.03 0.03 1016.5
20260502101541 0 0.0 0.0 0.00 0.03 0.03 1016.0
20260502071532 53 273 2.0 0.0 0.00 0.00 0.00 77 1017.2
20260502070020 53 281 2.0 6.0 0.00 0.00 0.00 77 1017.3
20260502064534 54 296 2.0 8.0 0.00 0.00 0.00 76 1017.1
20260502063032 54 290 1.0 0.0 0.00 0.00 0.00 76 1017.1
20260502061533 55 303 3.0 4.0 0.00 0.00 0.00 75 1017.1
20260502060030 0 0.0 0.0 0.00 0.00 0.00 1016.9
20260502054520 56 311 6.0 11.0 0.00 0.00 0.00 1016.8
20260502053029 0 0.0 0.0 0.00 0.00 0.00 1016.9
20260502051530 0 0.0 0.0 0.00 0.00 0.00 1016.6
20260502050033 58 296 7.0 13.0 0.00 0.00 0.00 69 1016.4
20260502044532 59 0.0 0.0 0.00 0.00 0.00 1016.4
20260502043022 59 290 2.0 10.0 0.00 0.00 0.00 69 1016.3
20260502041535 0 0.0 0.0 0.00 0.00 0.00 1016.1
20260502040032 0 0.0 0.0 0.00 0.00 0.00 1015.7
20260502034535 62 0.0 0.0 0.00 0.00 0.00 1015.6
20260502033034 0 0.0 0.0 0.00 0.00 0.00 1015.2
20260502031530 65 4.0 8.0 0.00 0.00 0.00 63 1015.0
20260502030010 65 5 7.0 12.0 0.00 0.00 0.00 62 1014.8
20260502024535 0 0.0 0.0 0.00 0.00 0.00 1014.4
20260502023033 0 0.0 0.0 0.00 0.00 0.00 1014.3
20260502021533 0 0.0 0.0 0.00 0.00 0.00 1014.1
20260502020031 71 338 4.0 9.0 0.00 0.00 0.00 45 1014.0
20260502014532 0 0.0 0.0 0.00 0.00 0.00 1014.1
20260502013031 0 0.0 0.0 0.00 0.00 0.00 1014.0
20260502011553 0 0.0 0.0 0.00 0.00 0.00 1013.9
20260502010031 0 0.0 0.0 0.00 0.00 0.00 1013.9
20260502004550 0 0.0 0.0 0.00 0.00 0.00 1013.9
20260502003030 0 0.0 0.0 0.00 0.00 0.00 1013.9
20260502001532 0 0.0 0.0 0.00 0.00 0.00 1014.0